| time (UTC) | temp F | wind direction | speed MPH | gust MPH | rain 1hr in | rain 24hr in | rain mn in | humidity % | barometer mb |
| 20260905034458 | 74 | 79 | 1.0 | 2.0 | 0.00 | 0.32 | 0.32 | 99 | 1013.6 |
| 20260905033956 | 74 | 32 | 0.0 | 0.0 | 0.00 | 0.32 | 0.32 | 99 | 1013.7 |
| 20260905033451 | 75 | 36 | 0.0 | 0.0 | 0.00 | 0.32 | 0.32 | 99 | 1013.7 |
| 20260905032946 | 75 | 1 | 0.0 | 1.0 | 0.00 | 0.32 | 0.32 | 99 | 1013.6 |
| 20260905032441 | 75 | 55 | 0.0 | 1.0 | 0.00 | 0.32 | 0.32 | 99 | 1013.8 |
| 20260905031936 | 75 | 84 | 0.0 | 0.0 | 0.00 | 0.32 | 0.32 | 99 | 1013.7 |
| 20260905031432 | 75 | 117 | 2.0 | 2.0 | 0.00 | 0.32 | 0.32 | 99 | 1014.0 |
| 20260905030927 | 75 | 153 | 1.0 | 1.0 | 0.07 | 0.32 | 0.32 | 98 | 1014.3 |
| 20260905030423 | 75 | 82 | 0.0 | 0.0 | 0.38 | 0.32 | 0.32 | 98 | 1013.8 |
| 20260905025921 | 76 | 178 | 1.0 | 1.0 | 0.73 | 0.31 | 0.31 | 97 | 1014.1 |
| 20260905025417 | 76 | 92 | 0.0 | 0.0 | 0.73 | 0.27 | 0.27 | 96 | 1014.1 |
| 20260905024914 | 77 | 280 | 2.0 | 2.0 | 0.35 | 0.19 | 0.19 | 95 | 1014.9 |
| 20260905024408 | 78 | 269 | 1.0 | 1.0 | 0.12 | 0.15 | 0.15 | 92 | 1014.4 |
| 20260905023904 | 78 | 21 | 1.0 | 1.0 | 0.00 | 0.13 | 0.13 | 91 | 1014.4 |
| 20260905023359 | 78 | 94 | 1.0 | 1.0 | 0.00 | 0.13 | 0.13 | 91 | 1014.2 |
| 20260905022858 | 78 | 77 | 1.0 | 1.0 | 0.00 | 0.13 | 0.13 | 91 | 1013.9 |
| 20260905022354 | 78 | 71 | 2.0 | 2.0 | 0.00 | 0.13 | 0.13 | 90 | 1014.0 |
| 20260905021854 | 78 | 81 | 1.0 | 2.0 | 0.00 | 0.13 | 0.13 | 90 | 1014.2 |
| 20260905021348 | 79 | 66 | 1.0 | 2.0 | 0.00 | 0.13 | 0.13 | 90 | 1013.8 |
| 20260905020844 | 79 | 120 | 0.0 | 0.0 | 0.00 | 0.13 | 0.13 | 90 | 1013.8 |
| 20260905020338 | 79 | 105 | 0.0 | 0.0 | 0.00 | 0.13 | 0.13 | 89 | 1013.9 |
| 20260905015838 | 79 | 68 | 1.0 | 1.0 | 0.00 | 0.13 | 0.13 | 89 | 1013.8 |
| 20260905015337 | 80 | 88 | 2.0 | 2.0 | 0.00 | 0.13 | 0.13 | 88 | 1013.7 |
| 20260905014831 | 80 | 357 | 1.0 | 1.0 | 0.00 | 0.13 | 0.13 | 89 | 1013.9 |
| 20260905014326 | 81 | 69 | 0.0 | 1.0 | 0.00 | 0.13 | 0.13 | 89 | 1013.9 |
| 20260905013821 | 81 | 65 | 0.0 | 1.0 | 0.00 | 0.13 | 0.13 | 89 | 1014.0 |
| 20260905013318 | 82 | 154 | 0.0 | 0.0 | 0.00 | 0.13 | 0.13 | 89 | 1013.7 |
| 20260905012813 | 82 | 59 | 1.0 | 2.0 | 0.00 | 0.13 | 0.13 | 90 | 1013.5 |
| 20260905012308 | 82 | 229 | 0.0 | 0.0 | 0.00 | 0.13 | 0.13 | 90 | 1013.5 |
| 20260905011805 | 82 | 229 | 0.0 | 0.0 | 0.00 | 0.13 | 0.13 | 90 | 1013.5 |
| 20260905011301 | 82 | 347 | 0.0 | 1.0 | 0.00 | 0.13 | 0.13 | 90 | 1013.4 |
| 20260905010800 | 82 | 10 | 0.0 | 0.0 | 0.00 | 0.13 | 0.13 | 89 | 1013.2 |
| 20260905010255 | 82 | 21 | 0.0 | 0.0 | 0.00 | 0.13 | 0.13 | 89 | 1013.0 |
| 20260905005752 | 82 | 22 | 0.0 | 1.0 | 0.00 | 0.13 | 0.13 | 88 | 1012.9 |
| 20260905005253 | 82 | 21 | 0.0 | 1.0 | 0.00 | 0.13 | 0.13 | 89 | 1012.8 |
| 20260905004752 | 82 | 325 | 0.0 | 1.0 | 0.00 | 0.13 | 0.13 | 90 | 1012.5 |
| 20260905004247 | 82 | 229 | 1.0 | 1.0 | 0.00 | 0.13 | 0.13 | 89 | 1012.5 |
| 20260905003742 | 82 | 178 | 0.0 | 0.0 | 0.00 | 0.13 | 0.13 | 89 | 1012.4 |
| 20260905003238 | 83 | 244 | 0.0 | 0.0 | 0.00 | 0.13 | 0.13 | 87 | 1012.4 |
| 20260905002734 | 84 | 245 | 0.0 | 0.0 | 0.00 | 0.13 | 0.13 | 86 | 1012.8 |
| 20260905002233 | 84 | 277 | 0.0 | 0.0 | 0.00 | 0.13 | 0.13 | 85 | 1012.3 |
| 20260905001729 | 84 | 277 | 0.0 | 0.0 | 0.00 | 0.13 | 0.13 | 85 | 1012.4 |
| 20260905001227 | 84 | 270 | 0.0 | 0.0 | 0.00 | 0.13 | 0.13 | 84 | 1012.5 |
| 20260905000723 | 84 | 275 | 0.0 | 1.0 | 0.00 | 0.13 | 0.13 | 84 | 1012.4 |
| 20260905000219 | 84 | 239 | 1.0 | 1.0 | 0.00 | 0.13 | 0.13 | 83 | 1012.4 |
| 20260904235714 | 85 | 206 | 0.0 | 0.0 | 0.00 | 0.13 | 0.13 | 83 | 1012.4 |
| 20260904235209 | 85 | 221 | 0.0 | 0.0 | 0.00 | 0.13 | 0.13 | 82 | 1012.0 |
| 20260904234703 | 85 | 178 | 0.0 | 0.0 | 0.00 | 0.13 | 0.13 | 82 | 1012.2 |
| 20260904234159 | 85 | 257 | 1.0 | 2.0 | 0.00 | 0.13 | 0.13 | 82 | 1011.9 |
| 20260904233654 | 86 | 230 | 0.0 | 0.0 | 0.00 | 0.13 | 0.13 | 81 | 1011.9 |
| 20260904233150 | 86 | 216 | 0.0 | 0.0 | 0.00 | 0.13 | 0.13 | 80 | 1012.0 |
| 20260904232647 | 86 | 216 | 0.0 | 0.0 | 0.00 | 0.13 | 0.13 | 79 | 1012.1 |
| 20260904232143 | 86 | 195 | 0.0 | 0.0 | 0.00 | 0.13 | 0.13 | 78 | 1011.9 |
| 20260904231637 | 87 | 209 | 0.0 | 0.0 | 0.00 | 0.13 | 0.13 | 77 | 1012.3 |
| 20260904231133 | 87 | 222 | 1.0 | 1.0 | 0.00 | 0.13 | 0.13 | 76 | 1012.2 |
| 20260904230632 | 88 | 244 | 1.0 | 1.0 | 0.00 | 0.13 | 0.13 | 75 | 1011.9 |
| 20260904230128 | 88 | 189 | 0.0 | 0.0 | 0.00 | 0.13 | 0.13 | 76 | 1012.1 |
| 20260904225625 | 88 | 255 | 2.0 | 2.0 | 0.00 | 0.13 | 0.13 | 76 | 1012.1 |
| 20260904225120 | 88 | 221 | 1.0 | 1.0 | 0.00 | 0.13 | 0.13 | 76 | 1012.3 |
| 20260904224615 | 88 | 193 | 1.0 | 2.0 | 0.00 | 0.13 | 0.13 | 75 | 1012.2 |
| 20260904224110 | 89 | 226 | 1.0 | 2.0 | 0.00 | 0.13 | 0.13 | 73 | 1012.2 |
| 20260904223609 | 88 | 223 | 0.0 | 0.0 | 0.00 | 0.13 | 0.13 | 74 | 1012.4 |
| 20260904223105 | 90 | 246 | 1.0 | 1.0 | 0.00 | 0.13 | 0.13 | 71 | 1012.5 |
| 20260904222600 | 90 | 199 | 1.0 | 1.0 | 0.00 | 0.13 | 0.13 | 70 | 1012.1 |
| 20260904222056 | 91 | 247 | 1.0 | 1.0 | 0.00 | 0.13 | 0.13 | 70 | 1012.3 |
| 20260904221556 | 91 | 261 | 3.0 | 3.0 | 0.00 | 0.13 | 0.13 | 68 | 1012.3 |
| 20260904221055 | 91 | 262 | 1.0 | 2.0 | 0.00 | 0.13 | 0.13 | 68 | 1012.5 |
| 20260904220550 | 91 | 283 | 2.0 | 2.0 | 0.00 | 0.13 | 0.13 | 67 | 1012.5 |
| 20260904220045 | 91 | 274 | 1.0 | 2.0 | 0.00 | 0.13 | 0.13 | 68 | 1012.2 |
| 20260904215540 | 92 | 256 | 1.0 | 1.0 | 0.00 | 0.13 | 0.13 | 68 | 1012.2 |
| 20260904215036 | 92 | 224 | 1.0 | 1.0 | 0.00 | 0.13 | 0.13 | 68 | 1012.3 |
| 20260904214531 | 92 | 222 | 1.0 | 1.0 | 0.00 | 0.13 | 0.13 | 68 | 1012.4 |
| 20260904214027 | 92 | 227 | 2.0 | 3.0 | 0.00 | 0.13 | 0.13 | 66 | 1012.3 |
| 20260904213524 | 92 | 212 | 4.0 | 6.0 | 0.00 | 0.13 | 0.13 | 67 | 1012.2 |
| 20260904213022 | 92 | 164 | 1.0 | 1.0 | 0.00 | 0.13 | 0.13 | 66 | 1012.3 |
| 20260904212521 | 92 | 264 | 2.0 | 2.0 | 0.00 | 0.13 | 0.13 | 67 | 1012.3 |
| 20260904212016 | 92 | 154 | 1.0 | 1.0 | 0.00 | 0.13 | 0.13 | 66 | 1012.2 |
| 20260904211516 | 91 | 223 | 1.0 | 2.0 | 0.00 | 0.13 | 0.13 | 67 | 1012.2 |
| 20260904211012 | 91 | 295 | 2.0 | 5.0 | 0.00 | 0.13 | 0.13 | 67 | 1011.9 |
| 20260904210511 | 91 | 230 | 1.0 | 3.0 | 0.00 | 0.13 | 0.13 | 68 | 1012.0 |
| 20260904210007 | 91 | 250 | 1.0 | 1.0 | 0.00 | 0.13 | 0.13 | 68 | 1012.2 |
| 20260904205502 | 92 | 227 | 1.0 | 1.0 | 0.00 | 0.13 | 0.13 | 66 | 1012.3 |
| 20260904204959 | 92 | 273 | 3.0 | 5.0 | 0.00 | 0.13 | 0.13 | 67 | 1011.9 |
| 20260904204454 | 91 | 192 | 1.0 | 2.0 | 0.00 | 0.13 | 0.13 | 68 | 1011.9 |
| 20260904203950 | 91 | 178 | 4.0 | 6.0 | 0.00 | 0.13 | 0.13 | 66 | 1012.2 |
| 20260904203446 | 91 | 130 | 5.0 | 7.0 | 0.00 | 0.13 | 0.13 | 66 | 1012.3 |
| 20260904202942 | 90 | 195 | 1.0 | 2.0 | 0.00 | 0.13 | 0.13 | 68 | 1012.2 |
| 20260904202438 | 90 | 233 | 3.0 | 3.0 | 0.00 | 0.13 | 0.13 | 67 | 1012.4 |
| 20260904201934 | 91 | 232 | 4.0 | 5.0 | 0.00 | 0.13 | 0.13 | 66 | 1012.3 |
| 20260904201429 | 91 | 122 | 1.0 | 2.0 | 0.00 | 0.13 | 0.13 | 67 | 1012.4 |
| 20260904200924 | 90 | 135 | 5.0 | 8.0 | 0.00 | 0.13 | 0.13 | 67 | 1012.4 |
| 20260904200422 | 90 | 228 | 3.0 | 3.0 | 0.00 | 0.13 | 0.13 | 67 | 1012.6 |
| 20260904195918 | 90 | 261 | 3.0 | 3.0 | 0.00 | 0.13 | 0.13 | 67 | 1012.9 |
| 20260904195415 | 90 | 241 | 5.0 | 8.0 | 0.00 | 0.13 | 0.13 | 69 | 1012.8 |
| 20260904194910 | 89 | 200 | 5.0 | 10.0 | 0.00 | 0.13 | 0.13 | 66 | 1012.8 |
| 20260904194410 | 89 | 246 | 4.0 | 6.0 | 0.00 | 0.13 | 0.13 | 68 | 1013.2 |
| 20260904193905 | 89 | 246 | 3.0 | 3.0 | 0.00 | 0.13 | 0.13 | 70 | 1013.2 |
| 20260904193400 | 89 | 244 | 2.0 | 2.0 | 0.00 | 0.13 | 0.13 | 72 | 1013.3 |
| 20260904192855 | 88 | 217 | 3.0 | 3.0 | 0.00 | 0.13 | 0.13 | 71 | 1013.3 |
| 20260904192351 | 87 | 225 | 4.0 | 6.0 | 0.00 | 0.13 | 0.13 | 70 | 1013.3 |
| 20260904191847 | 87 | 65 | 4.0 | 6.0 | 0.00 | 0.13 | 0.13 | 71 | 1013.2 |
| 20260904191344 | 87 | 176 | 4.0 | 6.0 | 0.00 | 0.13 | 0.13 | 72 | 1013.4 |
| 20260904190840 | 86 | 231 | 1.0 | 1.0 | 0.00 | 0.13 | 0.13 | 74 | 1013.8 |
| 20260904190335 | 86 | 124 | 3.0 | 5.0 | 0.00 | 0.13 | 0.13 | 72 | 1013.9 |
| 20260904185832 | 85 | 115 | 2.0 | 5.0 | 0.00 | 0.13 | 0.13 | 72 | 1013.9 |
| 20260904185327 | 85 | 133 | 4.0 | 5.0 | 0.00 | 0.13 | 0.13 | 76 | 1014.0 |
| 20260904184826 | 84 | 193 | 7.0 | 8.0 | 0.00 | 0.13 | 0.13 | 74 | 1013.7 |
| 20260904184321 | 85 | 165 | 4.0 | 5.0 | 0.00 | 0.13 | 0.13 | 75 | 1014.1 |
| 20260904183817 | 84 | 121 | 7.0 | 10.0 | 0.00 | 0.13 | 0.13 | 76 | 1014.4 |
| 20260904183312 | 84 | 231 | 6.0 | 7.0 | 0.00 | 0.13 | 0.13 | 75 | 1014.3 |
| 20260904182807 | 84 | 248 | 4.0 | 6.0 | 0.00 | 0.13 | 0.13 | 76 | 1014.4 |
| 20260904182306 | 83 | 157 | 2.0 | 2.0 | 0.00 | 0.13 | 0.13 | 79 | 1014.5 |
| 20260904181757 | 83 | 214 | 2.0 | 3.0 | 0.00 | 0.13 | 0.13 | 79 | 1014.3 |
| 20260904181251 | 82 | 102 | 2.0 | 3.0 | 0.00 | 0.13 | 0.13 | 82 | 1014.5 |
| 20260904180746 | 81 | 126 | 5.0 | 6.0 | 0.00 | 0.13 | 0.13 | 83 | 1014.5 |
| 20260904180242 | 80 | 118 | 3.0 | 5.0 | 0.00 | 0.13 | 0.13 | 86 | 1014.6 |
| 20260904175741 | 80 | 172 | 1.0 | 2.0 | 0.00 | 0.13 | 0.13 | 87 | 1014.5 |
| 20260904175239 | 79 | 171 | 3.0 | 5.0 | 0.00 | 0.13 | 0.13 | 89 | 1014.5 |
| 20260904174735 | 78 | 176 | 4.0 | 7.0 | 0.00 | 0.13 | 0.13 | 90 | 1014.2 |
| 20260904174231 | 77 | 221 | 3.0 | 5.0 | 0.00 | 0.13 | 0.13 | 94 | 1014.2 |
| 20260904173726 | 76 | 253 | 3.0 | 5.0 | 0.00 | 0.13 | 0.13 | 97 | 1014.4 |
| 20260904173221 | 75 | 116 | 4.0 | 5.0 | 0.00 | 0.13 | 0.13 | 97 | 1014.7 |
| 20260904172717 | 74 | 151 | 6.0 | 8.0 | 0.00 | 0.13 | 0.13 | 98 | 1014.8 |
| 20260904172216 | 74 | 93 | 3.0 | 5.0 | 0.00 | 0.13 | 0.13 | 99 | 1015.1 |
| 20260904171712 | 74 | 150 | 3.0 | 3.0 | 0.05 | 0.13 | 0.13 | 99 | 1015.4 |
| 20260904171207 | 73 | 116 | 2.0 | 3.0 | 0.24 | 0.13 | 0.13 | 99 | 1015.7 |
| 20260904170703 | 73 | 75 | 3.0 | 3.0 | 0.66 | 0.13 | 0.13 | 98 | 1016.0 |
| 20260904170158 | 74 | 167 | 3.0 | 3.0 | 0.54 | 0.10 | 0.10 | 97 | 1016.5 |
| 20260904165657 | 75 | 145 | 4.0 | 5.0 | 0.12 | 0.02 | 0.02 | 96 | 1017.2 |
| 20260904165156 | 75 | 149 | 2.0 | 2.0 | 0.07 | 0.01 | 0.01 | 94 | 1017.2 |
| 20260904164651 | 75 | 58 | 1.0 | 2.0 | 0.00 | 0.00 | 0.00 | 93 | 1017.3 |
| 20260904164146 | 75 | 30 | 1.0 | 2.0 | 0.00 | 0.00 | 0.00 | 92 | 1017.5 |
| 20260904163642 | 75 | 39 | 3.0 | 3.0 | 0.00 | 0.00 | 0.00 | 92 | 1017.2 |
| 20260904163138 | 75 | 126 | 1.0 | 1.0 | 0.00 | 0.00 | 0.00 | 92 | 1017.5 |
| 20260904162637 | 76 | 64 | 5.0 | 6.0 | 0.00 | 0.00 | 0.00 | 92 | 1017.1 |
| 20260904162132 | 75 | 118 | 7.0 | 10.0 | 0.00 | 0.00 | 0.00 | 92 | 1016.8 |
| 20260904161627 | 75 | 150 | 4.0 | 5.0 | 0.00 | 0.00 | 0.00 | 93 | 1016.4 |
| 20260904161122 | 75 | 101 | 3.0 | 3.0 | 0.00 | 0.00 | 0.00 | 94 | 1016.8 |
| 20260904160618 | 75 | 161 | 3.0 | 5.0 | 0.00 | 0.00 | 0.00 | 94 | 1016.9 |
| 20260904160114 | 75 | 103 | 2.0 | 5.0 | 0.00 | 0.00 | 0.00 | 93 | 1016.9 |
| 20260904155614 | 75 | 82 | 3.0 | 5.0 | 0.00 | 0.00 | 0.00 | 93 | 1017.1 |
| 20260904155102 | 75 | 69 | 3.0 | 5.0 | 0.00 | 0.00 | 0.00 | 94 | 1017.1 |
| 20260904154556 | 75 | 89 | 2.0 | 3.0 | 0.00 | 0.00 | 0.00 | 94 | 1017.3 |
| 20260904154050 | 75 | 66 | 3.0 | 7.0 | 0.00 | 0.00 | 0.00 | 93 | 1017.3 |
| 20260904153550 | 76 | 70 | 4.0 | 6.0 | 0.00 | 0.00 | 0.00 | 91 | 1016.9 |
| 20260904153047 | 76 | 75 | 8.0 | 14.0 | 0.00 | 0.00 | 0.00 | 92 | 1017.0 |
| 20260904152542 | 76 | 55 | 9.0 | 11.0 | 0.00 | 0.00 | 0.00 | 92 | 1017.1 |
| 20260904152037 | 75 | 14 | 3.0 | 5.0 | 0.00 | 0.00 | 0.00 | 93 | 1016.9 |
| 20260904151533 | 76 | 64 | 4.0 | 6.0 | 0.00 | 0.00 | 0.00 | 93 | 1017.4 |
| 20260904151026 | 77 | 59 | 3.0 | 5.0 | 0.00 | 0.00 | 0.00 | 92 | 1016.9 |
| 20260904150526 | 77 | 92 | 4.0 | 5.0 | 0.00 | 0.00 | 0.00 | 92 | 1017.0 |
| 20260904150021 | 77 | 56 | 3.0 | 3.0 | 0.00 | 0.00 | 0.00 | 91 | 1016.9 |
| 20260904145515 | 77 | 10 | 5.0 | 8.0 | 0.00 | 0.00 | 0.00 | 90 | 1016.9 |
| 20260904145011 | 78 | 355 | 2.0 | 5.0 | 0.00 | 0.00 | 0.00 | 89 | 1016.5 |
| 20260904144507 | 78 | 112 | 2.0 | 3.0 | 0.00 | 0.00 | 0.00 | 90 | 1015.9 |
| 20260904144003 | 78 | 50 | 3.0 | 5.0 | 0.00 | 0.00 | 0.00 | 89 | 1015.7 |
| 20260904143458 | 77 | 47 | 3.0 | 5.0 | 0.00 | 0.00 | 0.00 | 89 | 1015.7 |
| 20260904142954 | 77 | 61 | 3.0 | 3.0 | 0.00 | 0.00 | 0.00 | 89 | 1015.8 |
| 20260904142451 | 78 | 73 | 2.0 | 2.0 | 0.00 | 0.00 | 0.00 | 90 | 1015.6 |
| 20260904141950 | 78 | 75 | 1.0 | 1.0 | 0.00 | 0.00 | 0.00 | 89 | 1015.4 |
| 20260904141445 | 78 | 104 | 3.0 | 3.0 | 0.00 | 0.00 | 0.00 | 91 | 1015.5 |
| 20260904140942 | 77 | 46 | 4.0 | 7.0 | 0.00 | 0.00 | 0.00 | 92 | 1015.5 |
| 20260904140441 | 77 | 114 | 1.0 | 2.0 | 0.00 | 0.00 | 0.00 | 92 | 1015.4 |
| 20260904135940 | 76 | 100 | 2.0 | 2.0 | 0.00 | 0.00 | 0.00 | 94 | 1015.6 |
| 20260904135440 | 76 | 52 | 1.0 | 1.0 | 0.00 | 0.00 | 0.00 | 95 | 1015.6 |
| 20260904134937 | 75 | 15 | 1.0 | 1.0 | 0.00 | 0.00 | 0.00 | 96 | 1015.6 |
| 20260904134437 | 75 | 72 | 1.0 | 1.0 | 0.00 | 0.00 | 0.00 | 96 | 1015.5 |
| 20260904133931 | 75 | 72 | 5.0 | 6.0 | 0.00 | 0.00 | 0.00 | 95 | 1015.3 |
| 20260904133426 | 76 | 59 | 3.0 | 5.0 | 0.00 | 0.00 | 0.00 | 94 | 1015.4 |
| 20260904132922 | 75 | 103 | 2.0 | 5.0 | 0.00 | 0.00 | 0.00 | 95 | 1015.3 |
| 20260904132417 | 75 | 86 | 3.0 | 5.0 | 0.00 | 0.00 | 0.00 | 95 | 1015.4 |
| 20260904131916 | 75 | 58 | 5.0 | 7.0 | 0.00 | 0.00 | 0.00 | 95 | 1015.4 |
| 20260904131412 | 75 | 61 | 3.0 | 6.0 | 0.00 | 0.00 | 0.00 | 95 | 1015.3 |
| 20260904130907 | 74 | 61 | 3.0 | 3.0 | 0.00 | 0.00 | 0.00 | 96 | 1015.2 |
| 20260904130406 | 74 | 82 | 3.0 | 3.0 | 0.00 | 0.00 | 0.00 | 96 | 1015.3 |
| 20260904125901 | 73 | 71 | 3.0 | 6.0 | 0.00 | 0.00 | 0.00 | 97 | 1015.0 |
| 20260904125358 | 73 | 50 | 2.0 | 3.0 | 0.00 | 0.00 | 0.00 | 96 | 1015.1 |
| 20260904124857 | 73 | 64 | 3.0 | 5.0 | 0.00 | 0.00 | 0.00 | 97 | 1014.7 |
| 20260904124354 | 73 | 57 | 3.0 | 5.0 | 0.00 | 0.00 | 0.00 | 97 | 1014.8 |
| 20260904123848 | 73 | 47 | 3.0 | 3.0 | 0.00 | 0.00 | 0.00 | 97 | 1014.7 |
| 20260904123344 | 73 | 66 | 2.0 | 2.0 | 0.00 | 0.00 | 0.00 | 98 | 1014.5 |
| 20260904122839 | 72 | 81 | 1.0 | 2.0 | 0.00 | 0.00 | 0.00 | 98 | 1014.5 |
| 20260904122338 | 72 | 78 | 2.0 | 5.0 | 0.00 | 0.00 | 0.00 | 98 | 1014.5 |
| 20260904121833 | 72 | 63 | 2.0 | 3.0 | 0.00 | 0.00 | 0.00 | 99 | 1014.4 |
| 20260904121330 | 72 | 92 | 1.0 | 2.0 | 0.00 | 0.00 | 0.00 | 99 | 1014.3 |
| 20260904120826 | 73 | 103 | 0.0 | 0.0 | 0.00 | 0.00 | 0.00 | 99 | 1014.3 |
| 20260904120321 | 73 | 96 | 0.0 | 0.0 | 0.00 | 0.00 | 0.00 | 99 | 1014.0 |
| 20260904115816 | 73 | 101 | 0.0 | 0.0 | 0.00 | 0.00 | 0.00 | 99 | 1014.0 |
| 20260904115312 | 73 | 88 | 0.0 | 0.0 | 0.00 | 0.00 | 0.00 | 99 | 1013.9 |
| 20260904114812 | 73 | 75 | 3.0 | 5.0 | 0.00 | 0.00 | 0.00 | 99 | 1013.9 |
| 20260904114306 | 74 | 43 | 0.0 | 0.0 | 0.00 | 0.00 | 0.00 | 99 | 1013.9 |
| 20260904113801 | 74 | 166 | 0.0 | 0.0 | 0.00 | 0.00 | 0.00 | 99 | 1013.6 |
| 20260904113300 | 74 | 92 | 1.0 | 1.0 | 0.00 | 0.00 | 0.00 | 99 | 1013.7 |
| 20260904112755 | 74 | 27 | 1.0 | 1.0 | 0.00 | 0.00 | 0.00 | 99 | 1013.5 |
| 20260904112251 | 74 | 346 | 0.0 | 0.0 | 0.00 | 0.00 | 0.00 | 99 | 1013.4 |
| 20260904111746 | 74 | 90 | 3.0 | 3.0 | 0.00 | 0.00 | 0.00 | 99 | 1013.3 |
| 20260904111242 | 74 | 232 | 0.0 | 0.0 | 0.00 | 0.00 | 0.00 | 99 | 1013.3 |
| 20260904110737 | 74 | 233 | 0.0 | 0.0 | 0.00 | 0.00 | 0.00 | 99 | 1013.0 |
| 20260904110236 | 74 | 233 | 0.0 | 0.0 | 0.00 | 0.00 | 0.00 | 99 | 1012.8 |
| 20260904105732 | 74 | 233 | 0.0 | 0.0 | 0.00 | 0.00 | 0.00 | 98 | 1012.6 |
| 20260904105226 | 75 | 233 | 0.0 | 0.0 | 0.00 | 0.00 | 0.00 | 98 | 1013.0 |
| 20260904104722 | 75 | 233 | 0.0 | 0.0 | 0.00 | 0.00 | 0.00 | 98 | 1012.9 |
| 20260904104217 | 75 | 233 | 0.0 | 0.0 | 0.00 | 0.00 | 0.00 | 98 | 1012.8 |
| 20260904103715 | 75 | 233 | 0.0 | 0.0 | 0.00 | 0.00 | 0.00 | 97 | 1012.9 |
| 20260904103209 | 75 | 232 | 0.0 | 0.0 | 0.00 | 0.00 | 0.00 | 97 | 1013.0 |
| 20260904102705 | 76 | 232 | 0.0 | 0.0 | 0.00 | 0.00 | 0.00 | 97 | 1012.8 |
| 20260904102200 | 76 | 232 | 0.0 | 0.0 | 0.00 | 0.00 | 0.00 | 97 | 1012.8 |
| 20260904101657 | 76 | 232 | 0.0 | 0.0 | 0.00 | 0.00 | 0.00 | 97 | 1012.4 |
| 20260904101152 | 76 | 232 | 0.0 | 0.0 | 0.00 | 0.00 | 0.00 | 97 | 1012.8 |
| 20260904100648 | 76 | 218 | 0.0 | 0.0 | 0.00 | 0.00 | 0.00 | 97 | 1012.6 |
| 20260904100143 | 76 | 218 | 0.0 | 0.0 | 0.00 | 0.00 | 0.00 | 97 | 1012.6 |
| 20260904095642 | 76 | 223 | 0.0 | 0.0 | 0.00 | 0.00 | 0.00 | 96 | 1012.5 |
| 20260904095137 | 77 | 223 | 0.0 | 0.0 | 0.00 | 0.00 | 0.00 | 96 | 1012.4 |
| 20260904094633 | 77 | 205 | 0.0 | 0.0 | 0.00 | 0.00 | 0.00 | 96 | 1012.5 |
| 20260904094133 | 77 | 225 | 0.0 | 0.0 | 0.00 | 0.00 | 0.00 | 96 | 1012.5 |
| 20260904093630 | 77 | 222 | 0.0 | 0.0 | 0.00 | 0.00 | 0.00 | 96 | 1012.5 |
| 20260904093129 | 77 | 235 | 2.0 | 2.0 | 0.00 | 0.00 | 0.00 | 96 | 1012.2 |
| 20260904092626 | 77 | 208 | 1.0 | 1.0 | 0.00 | 0.00 | 0.00 | 96 | 1012.3 |
| 20260904092122 | 77 | 162 | 1.0 | 1.0 | 0.00 | 0.00 | 0.00 | 96 | 1012.4 |
| 20260904091618 | 77 | 168 | 0.0 | 0.0 | 0.00 | 0.00 | 0.00 | 96 | 1012.5 |
| 20260904091117 | 77 | 180 | 0.0 | 1.0 | 0.00 | 0.00 | 0.00 | 97 | 1012.4 |
| 20260904090612 | 77 | 186 | 2.0 | 2.0 | 0.00 | 0.00 | 0.00 | 97 | 1012.3 |
| 20260904090108 | 76 | 232 | 2.0 | 3.0 | 0.00 | 0.00 | 0.00 | 98 | 1012.3 |
| 20260904085603 | 76 | 207 | 0.0 | 1.0 | 0.00 | 0.00 | 0.00 | 98 | 1012.3 |
| 20260904085102 | 76 | 253 | 1.0 | 2.0 | 0.00 | 0.00 | 0.00 | 98 | 1012.2 |
| 20260904084558 | 75 | 157 | 1.0 | 2.0 | 0.00 | 0.00 | 0.00 | 99 | 1012.2 |
| 20260904084055 | 75 | 179 | 1.0 | 1.0 | 0.00 | 0.00 | 0.00 | 99 | 1012.2 |
| 20260904083550 | 74 | 181 | 1.0 | 2.0 | 0.00 | 0.00 | 0.00 | 99 | 1012.6 |
| 20260904083046 | 73 | 193 | 0.0 | 1.0 | 0.00 | 0.00 | 0.00 | 99 | 1012.6 |
| 20260904082541 | 73 | 191 | 0.0 | 0.0 | 0.00 | 0.00 | 0.00 | 99 | 1013.1 |
| 20260904082036 | 74 | 189 | 0.0 | 0.0 | 0.00 | 0.00 | 0.00 | 99 | 1013.4 |
| 20260904081531 | 74 | 189 | 0.0 | 0.0 | 0.00 | 0.00 | 0.00 | 99 | 1013.5 |
| 20260904081027 | 74 | 189 | 0.0 | 0.0 | 0.00 | 0.00 | 0.00 | 99 | 1013.4 |
| 20260904080522 | 74 | 189 | 0.0 | 0.0 | 0.00 | 0.00 | 0.00 | 99 | 1013.4 |
| 20260904080018 | 74 | 188 | 0.0 | 0.0 | 0.00 | 0.00 | 0.00 | 98 | 1013.2 |
| 20260904075514 | 74 | 98 | 0.0 | 0.0 | 0.00 | 0.00 | 0.00 | 98 | 1013.5 |
| 20260904075009 | 74 | 87 | 0.0 | 0.0 | 0.00 | 0.00 | 0.00 | 98 | 1013.3 |
| 20260904074503 | 75 | 147 | 0.0 | 0.0 | 0.00 | 0.00 | 0.00 | 98 | 1013.1 |
| 20260904073957 | 75 | 165 | 0.0 | 0.0 | 0.00 | 0.00 | 0.00 | 98 | 1013.1 |
| 20260904073453 | 75 | 166 | 0.0 | 0.0 | 0.00 | 0.00 | 0.00 | 98 | 1013.3 |
| 20260904072949 | 75 | 184 | 0.0 | 0.0 | 0.00 | 0.00 | 0.00 | 97 | 1013.0 |
| 20260904072445 | 75 | 185 | 0.0 | 0.0 | 0.00 | 0.00 | 0.00 | 97 | 1012.9 |
| 20260904071945 | 76 | 185 | 0.0 | 0.0 | 0.00 | 0.00 | 0.00 | 97 | 1012.9 |
| 20260904071441 | 76 | 185 | 0.0 | 0.0 | 0.00 | 0.00 | 0.00 | 97 | 1013.0 |
| 20260904070935 | 76 | 186 | 0.0 | 0.0 | 0.00 | 0.00 | 0.00 | 97 | 1012.6 |
| 20260904070433 | 76 | 222 | 2.0 | 2.0 | 0.00 | 0.00 | 0.00 | 98 | 1013.1 |
| 20260904065928 | 76 | 218 | 1.0 | 1.0 | 0.00 | 0.00 | 0.00 | 98 | 1012.6 |
| 20260904065424 | 75 | 202 | 0.0 | 0.0 | 0.00 | 0.00 | 0.00 | 98 | 1012.9 |
| 20260904064924 | 75 | 237 | 0.0 | 1.0 | 0.00 | 0.00 | 0.00 | 99 | 1012.6 |
| 20260904064415 | 75 | 202 | 0.0 | 1.0 | 0.00 | 0.00 | 0.00 | 99 | 1012.6 |
| 20260904063910 | 74 | 195 | 0.0 | 1.0 | 0.00 | 0.00 | 0.00 | 99 | 1012.9 |
| 20260904063407 | 74 | 180 | 0.0 | 1.0 | 0.00 | 0.00 | 0.00 | 99 | 1012.9 |
| 20260904062907 | 73 | 179 | 0.0 | 0.0 | 0.00 | 0.00 | 0.00 | 99 | 1013.1 |
| 20260904062403 | 74 | 190 | 0.0 | 0.0 | 0.00 | 0.00 | 0.00 | 99 | 1013.1 |
| 20260904061859 | 74 | 210 | 0.0 | 1.0 | 0.00 | 0.00 | 0.00 | 99 | 1013.2 |
| 20260904061355 | 73 | 187 | 1.0 | 1.0 | 0.00 | 0.00 | 0.00 | 99 | 1013.3 |
| 20260904060851 | 73 | 211 | 0.0 | 0.0 | 0.00 | 0.00 | 0.00 | 99 | 1013.6 |
| 20260904060347 | 73 | 212 | 0.0 | 0.0 | 0.00 | 0.00 | 0.00 | 99 | 1013.4 |
| 20260904055841 | 73 | 217 | 0.0 | 0.0 | 0.00 | 0.00 | 0.00 | 99 | 1013.5 |
| 20260904055337 | 73 | 218 | 0.0 | 0.0 | 0.00 | 0.00 | 0.00 | 99 | 1013.7 |
| 20260904054832 | 73 | 218 | 0.0 | 0.0 | 0.00 | 0.00 | 0.00 | 99 | 1014.0 |
| 20260904054328 | 73 | 200 | 0.0 | 1.0 | 0.00 | 0.00 | 0.00 | 99 | 1014.0 |
| 20260904053824 | 73 | 177 | 0.0 | 1.0 | 0.00 | 0.00 | 0.00 | 99 | 1014.1 |
| 20260904053323 | 73 | 174 | 0.0 | 1.0 | 0.00 | 0.00 | 0.00 | 99 | 1014.2 |
| 20260904052819 | 73 | 173 | 0.0 | 0.0 | 0.00 | 0.00 | 0.00 | 99 | 1014.3 |
| 20260904052315 | 73 | 173 | 0.0 | 0.0 | 0.00 | 0.00 | 0.00 | 99 | 1014.2 |
| 20260904051812 | 73 | 173 | 0.0 | 0.0 | 0.00 | 0.00 | 0.00 | 99 | 1014.2 |
| 20260904051307 | 73 | 173 | 0.0 | 0.0 | 0.00 | 0.00 | 0.00 | 99 | 1014.3 |
| 20260904050802 | 73 | 173 | 0.0 | 0.0 | 0.00 | 0.00 | 0.00 | 99 | 1014.4 |
| 20260904050259 | 73 | 173 | 0.0 | 0.0 | 0.00 | 0.00 | 0.00 | 99 | 1014.2 |
| 20260904045758 | 73 | 173 | 0.0 | 0.0 | 0.00 | 0.09 | 0.09 | 99 | 1014.0 |
| 20260904045253 | 73 | 174 | 0.0 | 0.0 | 0.00 | 0.09 | 0.09 | 99 | 1014.2 |
| 20260904044748 | 73 | 173 | 0.0 | 0.0 | 0.00 | 0.09 | 0.09 | 99 | 1014.2 |
| 20260904044245 | 73 | 173 | 0.0 | 0.0 | 0.00 | 0.09 | 0.09 | 99 | 1014.0 |
| 20260904043740 | 73 | 173 | 0.0 | 0.0 | 0.00 | 0.09 | 0.09 | 99 | 1014.0 |
| 20260904043237 | 73 | 173 | 0.0 | 0.0 | 0.00 | 0.09 | 0.09 | 99 | 1014.1 |
| 20260904042732 | 73 | 171 | 0.0 | 0.0 | 0.00 | 0.09 | 0.09 | 99 | 1013.9 |
| 20260904042228 | 73 | 165 | 0.0 | 0.0 | 0.00 | 0.09 | 0.09 | 99 | 1014.1 |
| 20260904041727 | 73 | 165 | 0.0 | 0.0 | 0.00 | 0.09 | 0.09 | 98 | 1014.0 |
| 20260904041224 | 73 | 165 | 0.0 | 0.0 | 0.00 | 0.09 | 0.09 | 98 | 1014.3 |
| 20260904040720 | 73 | 137 | 0.0 | 0.0 | 0.00 | 0.09 | 0.09 | 98 | 1014.1 |
| 20260904040215 | 73 | 129 | 2.0 | 2.0 | 0.00 | 0.09 | 0.09 | 98 | 1014.2 |
| 20260904035711 | 73 | 171 | 0.0 | 0.0 | 0.00 | 0.09 | 0.09 | 98 | 1014.3 |
| 20260904035206 | 73 | 122 | 0.0 | 1.0 | 0.00 | 0.09 | 0.09 | 98 | 1014.2 |
| 20260904034705 | 73 | 73 | 0.0 | 1.0 | 0.00 | 0.09 | 0.09 | 98 | 1014.5 |